If you wish to contribute or participate in the discussions about articles you are invited to join SKYbrary as a registered user

 Actions

Arcata Airport

From SKYbrary Wiki

KACV
Airport
ICAO: KACV
Summary
Name Arcata Airport
Region North America
Territory United States US.gif
Location Arcata, California, California
Serving Humboldt County
Coordinates 40° 58' 15.22" N, 124° 6' 23.49" W
Runways
Designator Length Width Surface ROPS
1/19 1371 m4,498.032 ft
46 m150.919 ft
ASP yes/yes
14/32 1829 m6,000.656 ft
46 m150.919 ft
ASP yes/yes


METAR
Observation KACV 102153Z AUTO 25006KT 10SM CLR 19/13 A3004 RMK AO2 SLP176 T01940133
Station Arcata / Eureka, Arcata Airport
Date/Time 10 June 2019 21:53:00
Wind direction 250°
Wind speed 06 kts
Lowest cloud amount n/a
Temperature 19.4°C
Dew point 13.3°C
Humidity 67%
QNH hPa
Weather condition n/a

WX
Tag(s) Fog

Arcata Airport, also known as Arcata/Eureka Airport, is an airport located 24 km12.959 nm
24,000 m
78,740.158 ft
north of Eureka in the unincorporated town of McKinleyville, California. This regional airport serves Humboldt County, including the two primary regional cities that compose its name: Arcata and Eureka.

Climatology

Dry-summer subtropical ”Mediterranean" climate (Köppen climate classification Csb) - characterized by warm, dry summers and mild winters.

Maps

Terrain

Loading map...

Airport Layout

Loading map...


Accidents & Serious Incidents at or in vicinity of KACV

None on SKYbrary